Weather History for Cody, WY

Change the Weather History Date:

Sunday, November 25, 2012

  Actual Average Record
Temperature  
Mean Temperature 30 °F -  
Max Temperature 35 °F 40 °F 65 °F (1933)
Min Temperature 24 °F 18 °F -10 °F (1993)
Degree Days  
Heating Degree Days 34    
Moisture  
Dew Point 29 °F    
Average Humidity 90    
Maximum Humidity 100    
Minimum Humidity 75    
Precipitation  
Precipitation 0.00 in - - ()
Sea Level Pressure  
Sea Level Pressure 29.97 in    
Wind  
Wind Speed 6 mph (North)    
Max Wind Speed 15 mph    
Max Gust Speed 20 mph    
Visibility 7 miles    
Events      
Averages and records for this station are not official NWS values.
T = Trace of Precipitation, MM = Missing Value Source: NWS Daily Summary

Daily Weather History Graph

Daily Weather History Graph

Search for Another Location

Airport:

Trip Planner

Search our weather history database for the weather conditions in past years. The results will help you decide how hot, cold, wet, or windy it might be!

Date:

Astronomy

Nov. 25, 2012 Rise Set
Actual Time 7:26 AM MST 4:40 PM MST
Civil Twilight 6:53 AM MST 5:12 PM MST
Nautical Twilight 6:17 AM MST 5:48 PM MST
Astronomical Twilight 5:42 AM MST 6:23 PM MST
Moon 3:02 PM MST (11/25) 4:38 AM MST (11/25)
Length of Visible Light 10h 18m
Length of Day
9h 14m
Waxing Gibbous, 93% of the Moon is Illuminated
Nov 25
Waxing Gibbous
Nov 28
Full
Dec 6
Last Quarter
Dec 13
New
Dec 19
First Quarter

Hourly Weather History & Observations

Time (MST) Temp. Windchill Dew Point Humidity Pressure Visibility Wind Dir Wind Speed Gust Speed Precip Events Conditions
12:15 AM 35.6 °F 30.7 °F 28.4 °F 75% 29.95 in 10.0 mi NNE 5.8 mph - N/A   Overcast
12:35 AM 35.6 °F 32.8 °F 28.4 °F 75% 29.95 in 10.0 mi ENE 3.5 mph - N/A   Overcast
12:55 AM 35.6 °F 31.7 °F 28.4 °F 75% 29.94 in 10.0 mi East 4.6 mph - N/A   Overcast
1:15 AM 35.6 °F - 28.4 °F 75% 29.94 in 10.0 mi Calm Calm - N/A   Overcast
1:55 AM 35.6 °F - 28.4 °F 75% 29.93 in 10.0 mi Calm Calm - N/A   Overcast
2:15 AM 35.6 °F - 28.4 °F 75% 29.93 in 10.0 mi Calm Calm - N/A   Overcast
2:35 AM 35.6 °F - 28.4 °F 75% 29.93 in 10.0 mi Calm Calm - N/A   Overcast
2:55 AM 35.6 °F - 30.2 °F 81% 29.92 in 10.0 mi Calm Calm - N/A   Overcast
3:15 AM 33.8 °F - 30.2 °F 87% 29.91 in - Calm Calm - N/A   Unknown
3:35 AM 33.8 °F 30.8 °F 30.2 °F 87% 29.90 in 10.0 mi South 3.5 mph - N/A   Overcast
3:55 AM 33.8 °F 30.8 °F 28.4 °F 81% 29.89 in 10.0 mi SSE 3.5 mph - N/A   Overcast
4:15 AM 33.8 °F 29.6 °F 28.4 °F 81% 29.89 in 10.0 mi SE 4.6 mph - N/A   Overcast
4:35 AM 33.8 °F 30.8 °F 28.4 °F 81% 29.89 in 10.0 mi SSE 3.5 mph - N/A   Overcast
4:55 AM 33.8 °F - 28.4 °F 81% 29.88 in 10.0 mi Calm Calm - N/A   Overcast
5:15 AM 35.6 °F - 28.4 °F 75% 29.88 in 10.0 mi Calm Calm - N/A   Overcast
5:35 AM 33.8 °F - 30.2 °F 87% 29.89 in 10.0 mi Calm Calm - N/A   Overcast
6:15 AM 33.8 °F 30.8 °F 30.2 °F 87% 29.88 in 3.0 mi NNW 3.5 mph - N/A   Overcast
6:35 AM 33.8 °F 30.8 °F 32.0 °F 93% 29.88 in 3.0 mi NNW 3.5 mph - N/A   Overcast
6:55 AM 32.0 °F 27.5 °F 32.0 °F 100% 29.88 in 4.0 mi North 4.6 mph - N/A   Overcast
7:15 AM 32.0 °F 28.7 °F 32.0 °F 100% 29.88 in 2.0 mi North 3.5 mph - N/A   Overcast
7:35 AM 32.0 °F 25.6 °F 32.0 °F 100% 29.88 in 0.5 mi North 6.9 mph - N/A   Overcast
7:55 AM 32.0 °F 25.6 °F 32.0 °F 100% 29.89 in 1.8 mi NNE 6.9 mph - N/A   Overcast
8:15 AM 32.0 °F 24.8 °F 32.0 °F 100% 29.89 in 3.0 mi North 8.1 mph - N/A   Overcast
9:15 AM 32.0 °F 26.4 °F 32.0 °F 100% 29.90 in 10.0 mi NNE 5.8 mph - N/A   Overcast
9:35 AM 30.2 °F 21.3 °F 30.2 °F 100% 29.90 in 10.0 mi NNE 10.4 mph - N/A   Overcast
9:55 AM 32.0 °F 23.6 °F 30.2 °F 93% 29.91 in 4.0 mi NNE 10.4 mph - N/A   Overcast
10:15 AM 32.0 °F 27.5 °F 32.0 °F 100% 29.91 in 1.5 mi North 4.6 mph - N/A   Overcast
11:15 AM 33.8 °F 24.8 °F 30.2 °F 87% 29.92 in 10.0 mi NNW 12.7 mph - N/A   Overcast
11:35 AM 33.8 °F 25.3 °F 30.2 °F 87% 29.92 in 10.0 mi North 11.5 mph - N/A   Overcast
11:55 AM 33.8 °F 23.9 °F 30.2 °F 87% 29.91 in 10.0 mi NNW 15.0 mph - N/A   Overcast
12:15 PM 33.8 °F 24.3 °F 30.2 °F 87% 29.91 in 7.0 mi North 13.8 mph - N/A   Overcast
12:35 PM 33.8 °F 24.8 °F 30.2 °F 87% 29.91 in 10.0 mi North 12.7 mph - N/A   Overcast
1:15 PM 33.8 °F 24.8 °F 30.2 °F 87% 29.93 in 10.0 mi North 12.7 mph 19.6 mph N/A   Mostly Cloudy
1:35 PM 33.8 °F 25.3 °F 30.2 °F 87% 29.92 in 2.5 mi NNW 11.5 mph - N/A   Overcast
1:55 PM 32.0 °F 22.1 °F 30.2 °F 93% 29.93 in 2.5 mi NNW 13.8 mph - N/A   Overcast
2:15 PM 32.0 °F 23.6 °F 30.2 °F 93% 29.93 in 8.0 mi North 10.4 mph - N/A   Overcast
2:35 PM 32.0 °F 23.0 °F 30.2 °F 93% 29.94 in 10.0 mi North 11.5 mph - N/A   Overcast
2:55 PM 32.0 °F 22.1 °F 30.2 °F 93% 29.94 in 4.0 mi North 13.8 mph - N/A   Overcast
3:15 PM 32.0 °F 23.0 °F 30.2 °F 93% 29.95 in 5.0 mi NNW 11.5 mph - N/A   Overcast
3:35 PM 30.2 °F 21.3 °F 30.2 °F 100% 29.96 in 4.0 mi North 10.4 mph - N/A   Overcast
3:55 PM 30.2 °F 20.8 °F 30.2 °F 100% 29.97 in 2.5 mi North 11.5 mph - N/A   Overcast
4:15 PM 30.2 °F 19.3 °F 28.4 °F 93% 29.98 in 9.0 mi North 15.0 mph 19.6 mph N/A   Overcast
4:35 PM 28.4 °F 19.1 °F 28.4 °F 100% 29.99 in 3.0 mi NNW 10.4 mph - N/A   Overcast
4:55 PM 30.2 °F 21.9 °F 28.4 °F 93% 29.99 in 10.0 mi North 9.2 mph - N/A   Overcast
5:15 PM 30.2 °F 21.9 °F 28.4 °F 93% 30.01 in 7.0 mi NNW 9.2 mph - N/A   Overcast
5:35 PM 28.4 °F 20.4 °F 28.4 °F 100% 30.02 in 3.0 mi North 8.1 mph - N/A   Overcast
5:55 PM 28.4 °F 19.1 °F 28.4 °F 100% 30.02 in 3.0 mi NNE 10.4 mph - N/A   Overcast
6:15 PM 28.4 °F 19.7 °F 26.6 °F 93% 30.03 in 3.0 mi North 9.2 mph - N/A   Overcast
6:35 PM 28.4 °F 22.2 °F 26.6 °F 93% 30.04 in 6.0 mi North 5.8 mph - N/A   Overcast
6:55 PM 28.4 °F 24.6 °F 26.6 °F 93% 30.04 in 10.0 mi North 3.5 mph - N/A   Overcast
7:15 PM 28.4 °F 24.6 °F 26.6 °F 93% 30.05 in 9.0 mi North 3.5 mph - N/A   Overcast
7:55 PM 28.4 °F - 26.6 °F 93% 30.07 in 5.0 mi Calm Calm - N/A   Overcast
8:15 PM 28.4 °F 24.6 °F 26.6 °F 93% 30.08 in 4.0 mi NNE 3.5 mph - N/A   Overcast
8:35 PM 28.4 °F 22.2 °F 24.8 °F 86% 30.09 in 10.0 mi North 5.8 mph - N/A   Mostly Cloudy
9:15 PM 26.6 °F 16.8 °F 24.8 °F 93% 30.11 in 10.0 mi NNW 10.4 mph - N/A   Overcast
9:35 PM 28.4 °F 19.1 °F 24.8 °F 86% 30.11 in 10.0 mi NNW 10.4 mph - N/A   Overcast
9:55 PM 26.6 °F 16.2 °F 24.8 °F 93% 30.12 in 10.0 mi North 11.5 mph - N/A   Overcast
10:15 PM 26.6 °F 16.2 °F 24.8 °F 93% 30.13 in 7.0 mi North 11.5 mph - N/A   Overcast
10:35 PM 26.6 °F 15.7 °F 26.6 °F 100% 30.14 in 4.0 mi North 12.7 mph 18.4 mph N/A   Overcast
10:55 PM 26.6 °F 15.7 °F 24.8 °F 93% 30.15 in 3.0 mi North 12.7 mph 18.4 mph N/A   Overcast
11:15 PM 26.6 °F 16.8 °F 24.8 °F 93% 30.16 in 5.0 mi North 10.4 mph - N/A   Overcast
11:35 PM 26.6 °F 16.2 °F 24.8 °F 93% 30.17 in 5.0 mi North 11.5 mph 18.4 mph N/A   Overcast
11:55 PM 24.8 °F 14.6 °F 24.8 °F 100% 30.18 in 10.0 mi North 10.4 mph - N/A   Overcast